Flag for U.S.A. Weather past 2 weeks in Durham, North Carolina, U.S.A.

63 °F

Passing clouds.

Feels Like: 63 °F
Forecast: 51 / 71 °F
Wind: 14 mph from Northeast

Location: Raleigh-Durham International Airport

Current Time: Oct 6, 2015 at 11:55:45 AM

Latest Report: Oct 6, 2015 at 10:51 AM

Visibility: 10 mi

Pressure: 30.04 "Hg

Humidity: 63%

Dew point: 50 °F

Location of DurhamLocation

Historic Weather in Durham — Graph


Durham temperature yesterday

Maximum temperature yesterday: 60 °F (at 2:51 PM)
Minimum temperature yesterday: 56 °F (at 3:51 AM)
Average temperature yesterday: 58 °F

Past Weeks' High & Low Weather Summary

High83 °F (Sep 30, 3:51 PM)100% (Sep 25, 6:51 AM)30.20 "Hg (Sep 25, 6:51 AM)
Low51 °F (Oct 6, 6:51 AM)54% (Sep 22, 2:51 PM)29.74 "Hg (Sep 30, 3:51 AM)
Average67 °F87%30.01 "Hg
* Reported Sep 21 10:51 AM — Oct 6 10:51 AM, Durham, Weather by CustomWeather, © 2015

Note: Actual official high and low records may vary slightly from our data, if they occured in-between our weather recording intervals... More about our weather records


Durham weather history for previous 24 hours

Time TempWeatherWind HumidityBarometerVisibility
10:51 AM
Tue, Oct 6
63 °FPassing clouds.14 mph63%30.04 "Hg10 mi
9:51 AM60 °FScattered clouds.10 mph72%30.05 "Hg10 mi
8:51 AM56 °FScattered clouds.8 mph84%30.05 "Hg10 mi
7:51 AM52 °FPassing clouds.6 mph93%30.04 "Hg10 mi
6:51 AM51 °FPassing clouds.3 mph92%30.04 "Hg10 mi
5:51 AM52 °FPassing clouds.6 mph93%30.04 "Hg10 mi
4:51 AM53 °FPassing clouds.8 mph89%30.01 "Hg10 mi
3:51 AM53 °FPassing clouds.6 mph93%30.02 "Hg10 mi
2:51 AM54 °FPassing clouds.8 mph93%30.03 "Hg10 mi
1:51 AM56 °FPassing clouds.5 mph87%30.04 "Hg10 mi
12:51 AM57 °FPartly cloudy.9 mph83%30.04 "Hg10 mi
11:51 PM
Mon, Oct 5
58 °FPassing clouds.10 mph84%30.05 "Hg10 mi
10:51 PM59 °FPassing clouds.9 mph81%30.05 "Hg10 mi
9:51 PM59 °FPartly cloudy.8 mph84%30.05 "Hg10 mi
8:51 PM59 °FLight rain. Passing clouds.7 mph87%30.06 "Hg10 mi
7:51 PM59 °FLight rain. Partly sunny.8 mph87%30.05 "Hg7 mi
6:51 PM60 °FLight rain. Partly sunny.7 mph90%30.02 "Hg7 mi
5:51 PM59 °FLight rain. Fog.6 mph93%30.00 "Hg6 mi
4:51 PM59 °FLight rain. Fog.9 mph93%30.00 "Hg2 mi
3:51 PM60 °FLight rain. Fog.13 mph86%29.99 "Hg3 mi
2:51 PM60 °FOvercast.14 mph83%29.98 "Hg10 mi
1:51 PM59 °FOvercast.14 mph87%30.01 "Hg10 mi
12:51 PM59 °FOvercast.14 mph84%30.03 "Hg10 mi
11:51 AM59 °FOvercast.13 mph84%30.03 "Hg10 mi
Weather by CustomWeather, © 2015

See weather overviewHow to use our weather pages